[[{"header":{"parameterUnit":"m.s-1","parameterCategory":1,"la1":30.2991,"la2":30.254,"lo1":-89.0895,"lo2":-89.0444,"dy":0.0017,"dx":0.0017,"nx":28,"ny":28,"refTime":"2025-07-30T21:00:00:Z","depth":0,"parameterNumber":2,"parameterNumberName":"U-component_of_WINDS"},"data":[0,0,0,0,0,0,0,0,0,0,0,0,0,0,0,0,0,0,0,0,0,0,0,0,0,0,0,0,0,0,0,0,0,0,0,0,0,0,0,0,0,0,0,0,0,0,0,0,0,0,0,0,0,0,0,0,0,0,2.8253,2.8254,0,2.8371,2.8373,2.8374,2.8292,2.8288,2.8285,2.8281,2.8406,2.8412,2.8419,0,0,0,0,0,0,0,0,0,0,0,0,0,2.7958,2.7964,2.8253,2.8255,2.8256,2.8371,2.8373,2.8374,2.8293,2.8288,2.8284,2.8279,2.8404,2.8412,2.842,0,0,0,0,0,0,0,0,0,0,0,0,0,2.8083,2.7966,2.8253,2.8229,2.8228,2.8371,2.8373,2.8375,2.8294,2.8288,2.8283,2.8277,2.8401,2.8411,2.8421,2.8594,0,0,2.8452,2.8456,0,0,0,0,0,0,0,0,2.8076,2.8094,2.8231,2.8231,2.823,2.8311,2.8314,2.8449,2.8295,2.8269,2.8281,2.8275,2.8379,2.8391,2.8425,2.86,2.8606,2.8453,2.8459,2.8463,2.8466,0,0,0,0,0,0,0,2.8067,2.8088,2.83,2.8233,2.8233,2.8213,2.8225,2.8339,2.8354,2.8271,2.8265,2.828,2.8378,2.8415,2.8427,2.8607,2.8452,2.8461,2.8468,2.8472,2.8929,2.8935,0,0,0,0,0,0,2.806,2.8081,2.8296,2.8303,2.8138,2.8223,2.8236,2.8291,2.8352,2.8356,2.8285,2.8276,2.8401,2.8416,2.8431,2.8637,2.8463,2.8473,2.8478,2.8923,2.893,2.8937,0,0,0,0,0,0,2.8054,2.808,2.8291,2.8191,2.8216,2.8234,2.8296,2.8296,2.8334,2.8363,2.8365,2.832,2.8397,2.8417,2.8554,2.8641,2.8477,2.8486,2.8916,2.8925,2.8934,2.9052,0,0,0,0,0,0,2.8046,2.8079,2.8144,2.8193,2.8222,2.8412,2.8302,2.8302,2.8351,2.834,2.8397,2.8401,2.8394,2.8539,2.8564,2.8652,2.8494,2.8908,2.892,2.8931,2.904,2.9064,2.9084,0,0,0,0,0,2.8036,2.8174,2.8148,2.8175,2.8304,2.8417,2.8433,2.8422,2.8358,2.8425,2.8443,2.8399,2.8627,2.8554,2.8581,2.8673,2.8903,2.8917,2.893,2.903,2.9059,2.9083,0,0,0,0,0,0,2.8137,2.818,2.8152,2.831,2.836,2.8403,2.8486,2.8453,2.8523,2.8511,2.8494,2.8508,2.8651,2.8675,2.8593,2.8843,2.8755,2.8775,2.8822,2.8849,2.8871,2.8862,2.8503,0,0,0,0,0,2.8177,2.8264,2.8297,2.8434,2.846,2.8469,2.8517,2.8504,2.8556,2.8577,2.8605,2.8658,2.8741,2.8797,2.8875,2.9043,2.9054,2.912,2.9142,2.9159,2.9177,2.9266,2.9295,2.8982,2.8982,2.8981,0,0,2.8262,2.8296,2.8353,2.8455,2.8492,2.8582,2.8488,2.8588,2.8655,2.8593,2.8723,2.8745,2.8803,2.8956,2.9025,2.8981,2.9266,2.9177,2.9191,2.9199,2.9283,2.9313,2.9339,2.8991,2.8989,2.8988,0,0,2.8463,2.8498,2.8614,2.8653,2.871,2.8715,2.8743,2.879,2.8802,2.8932,2.8887,2.8967,2.9111,2.9154,2.9194,2.9409,2.9371,2.9435,2.955,2.9637,2.9662,2.9683,2.9759,2.9787,2.9452,2.9453,2.9453,0,2.8561,2.8695,2.8678,2.8781,2.8827,2.8774,2.8891,2.893,2.9011,2.9044,2.8994,2.9172,2.9207,2.9368,2.942,2.9456,2.9487,2.9429,2.9659,2.9681,2.9701,2.9773,2.9802,2.946,2.9459,2.9458,2.9458,0,2.8813,2.8906,2.8993,2.907,2.9126,2.9236,2.9236,2.9295,2.9276,2.9287,2.9419,2.9459,2.9544,2.9581,2.9565,2.974,2.9711,2.9661,2.9571,2.9738,2.9806,2.9833,2.9471,2.9468,2.9466,2.9464,0,0,2.9081,2.9146,2.9178,2.9212,2.927,2.9342,2.945,2.9531,2.9581,2.9638,2.9728,2.985,2.9803,2.9849,2.9837,2.9914,3.008,2.9853,2.9854,2.9893,3.0274,3.0311,3.0343,3.0055,3.006,3.0064,3.0269,0,2.9284,2.9469,2.9457,2.9632,2.9717,2.9667,2.976,2.9806,2.9818,2.9893,2.9907,2.9993,2.9925,2.9952,3.0026,3.0044,3.0156,3.0029,3.0138,3.0142,3.0124,3.0379,3.0419,3.061,3.0295,3.03,3.0303,0,2.9545,2.9609,2.9792,2.9836,2.9872,2.9956,3.0028,3.01,3.0152,3.0155,3.0206,3.018,3.0289,3.0197,3.0346,3.026,3.0303,3.0319,3.0326,3.0335,3.0232,3.0394,3.0671,3.0699,3.0344,3.0341,3.0338,0,2.9721,2.9853,2.9979,3.001,3.0065,3.0125,3.015,3.0196,3.0245,3.0309,3.0341,3.0417,3.0459,3.0519,3.0515,3.0449,3.0666,3.0574,3.0672,3.0672,3.072,3.0717,3.1007,3.075,3.0749,3.0749,3.0748,0,2.9948,3.0062,3.0059,3.0137,3.0262,3.0247,3.0372,3.0391,3.0432,3.0512,3.0474,3.0551,3.0541,3.0619,3.0617,3.074,3.0759,3.0765,3.0763,3.0768,3.0767,3.0797,3.0783,3.0756,3.0755,3.0753,3.0752,0,3.0166,3.0169,3.0303,3.0343,3.0355,3.0446,3.048,3.0554,3.0562,3.0665,3.0688,3.0701,3.079,3.0792,3.0895,3.0893,3.1043,3.1027,3.1025,3.1022,3.112,3.111,3.1438,3.1479,3.1196,3.1198,3.1201,0,3.0311,3.0397,3.0445,3.0496,3.0525,3.0607,3.0656,3.0644,3.0698,3.0761,3.0827,3.0912,3.0979,3.1123,3.1143,3.1221,3.1205,3.1315,3.1217,3.1219,3.1206,3.1201,3.1209,3.1334,3.1337,3.134,3.1342,0,3.0567,3.0563,3.0635,3.0708,3.0767,3.0824,3.0877,3.0921,3.0915,3.0977,3.1066,3.1118,3.1221,3.1306,3.1381,3.1408,3.1375,3.1372,3.1399,3.1405,3.14,3.1403,3.1077,3.1365,3.1362,3.1361,3.136,3.1359,3.0752,3.0825,3.087,3.0952,3.0989,3.1039,3.111,3.1126,3.12,3.1282,3.127,3.137,3.1418,3.1515,3.1548,3.1626,3.1588,3.1627,3.1637,3.1647,3.1657,3.1388,3.164,3.1639,3.1639,3.1638,3.1638,0,3.1005,3.1031,3.1106,3.1179,3.1243,3.1204,3.126,3.1317,3.1404,3.1451,3.1517,3.1619,3.1701,3.1726,3.1805,3.1863,3.1849,3.1884,3.1879,3.1886,3.1687,3.1655,3.1893,3.1893,3.1893,3.1893,3.1893,3.1893,3.1144,3.1266,3.1267,3.1407,3.1433,3.1529,3.1564,3.1609,3.1646,3.1762,3.1829,3.1844,3.1882,3.1963,3.2036,3.2042,3.2072,3.2113,3.2113,3.1926,3.19,3.1876,3.1846,3.212,3.2121,3.2305,3.2307,3.2308]},{"header":{"parameterUnit":"m.s-1","parameterCategory":1,"la1":30.2991,"la2":30.254,"lo1":-89.0895,"lo2":-89.0444,"dy":0.0017,"dx":0.0017,"nx":28,"ny":28,"refTime":"2025-07-30T21:00:00:Z","depth":0,"parameterNumber":3,"parameterNumberName":"V-component_of_WINDS"},"data":[0,0,0,0,0,0,0,0,0,0,0,0,0,0,0,0,0,0,0,0,0,0,0,0,0,0,0,0,0,0,0,0,0,0,0,0,0,0,0,0,0,0,0,0,0,0,0,0,0,0,0,0,0,0,0,0,0,0,2.5599,2.56,0,2.5689,2.569,2.5691,2.5677,2.5676,2.5674,2.5673,2.5763,2.5766,2.577,0,0,0,0,0,0,0,0,0,0,0,0,0,2.5414,2.5417,2.5599,2.56,2.5601,2.5688,2.569,2.5691,2.5678,2.5676,2.5674,2.5672,2.5761,2.5766,2.577,0,0,0,0,0,0,0,0,0,0,0,0,0,2.5498,2.5418,2.5599,2.5605,2.5607,2.5688,2.569,2.5691,2.5678,2.5676,2.5673,2.5671,2.576,2.5765,2.5771,2.5851,0,0,2.5788,2.5791,0,0,0,0,0,0,0,0,2.5493,2.5505,2.5603,2.5605,2.5607,2.567,2.5657,2.5745,2.5679,2.5651,2.5673,2.567,2.5733,2.5741,2.5763,2.5856,2.5859,2.5789,2.5792,2.5795,2.5796,0,0,0,0,0,0,0,2.5487,2.5501,2.5634,2.5605,2.5607,2.5603,2.5612,2.5674,2.5704,2.5653,2.5652,2.5663,2.5734,2.5757,2.5765,2.5861,2.5789,2.5794,2.5797,2.5799,2.6022,2.6024,0,0,0,0,0,0,2.548,2.5496,2.5632,2.5637,2.5543,2.5608,2.5618,2.5652,2.5703,2.5709,2.5665,2.5662,2.5749,2.5758,2.5768,2.5864,2.5795,2.58,2.5803,2.602,2.6023,2.6025,0,0,0,0,0,0,2.5476,2.5492,2.5628,2.5566,2.5583,2.5613,2.5651,2.5655,2.5678,2.5712,2.5717,2.5684,2.5747,2.576,2.583,2.5867,2.5803,2.5808,2.6017,2.602,2.6024,2.6058,0,0,0,0,0,0,2.5471,2.5491,2.5523,2.5567,2.5587,2.569,2.5653,2.5658,2.5688,2.5685,2.5731,2.5736,2.5746,2.5822,2.5836,2.5874,2.5812,2.6013,2.6018,2.6023,2.6054,2.6063,2.607,0,0,0,0,0,2.5464,2.5529,2.5524,2.5541,2.5627,2.5692,2.5703,2.5714,2.5691,2.5723,2.5744,2.5735,2.5861,2.5829,2.5845,2.5885,2.6011,2.6017,2.6022,2.605,2.6061,2.607,0,0,0,0,0,0,2.5487,2.5535,2.553,2.5611,2.5648,2.569,2.573,2.5726,2.5769,2.5765,2.5776,2.5786,2.5857,2.5878,2.5842,2.5965,2.5933,2.5942,2.5948,2.5959,2.5967,2.596,2.5817,0,0,0,0,0,2.5502,2.5552,2.559,2.5657,2.5676,2.57,2.5729,2.5734,2.5772,2.5788,2.5814,2.5851,2.5899,2.593,2.5976,2.6057,2.6066,2.6092,2.61,2.6107,2.6114,2.6157,2.6169,2.6044,2.6044,2.6044,0,0,2.5532,2.5564,2.5595,2.5663,2.5692,2.5742,2.5713,2.5768,2.5805,2.5796,2.5864,2.5885,2.5926,2.6002,2.6037,2.6022,2.6151,2.6114,2.6119,2.6123,2.6164,2.6176,2.6186,2.6048,2.6047,2.6046,0,0,2.5613,2.5643,2.5702,2.5731,2.5776,2.5791,2.5805,2.5848,2.5861,2.593,2.5924,2.5967,2.605,2.6079,2.6105,2.6196,2.6188,2.621,2.6253,2.6294,2.6304,2.6313,2.6344,2.6355,2.6218,2.6218,2.6218,0,2.5645,2.5721,2.5732,2.5788,2.5817,2.5811,2.587,2.5898,2.5955,2.5975,2.5957,2.606,2.6088,2.617,2.6192,2.6213,2.6228,2.6205,2.6302,2.6311,2.6319,2.6349,2.6361,2.622,2.622,2.622,2.622,0,2.5758,2.581,2.5853,2.5908,2.5942,2.5999,2.6018,2.6051,2.6053,2.607,2.6139,2.6172,2.6224,2.6243,2.6246,2.6325,2.6315,2.63,2.6267,2.6333,2.6361,2.6373,2.6224,2.6223,2.6222,2.6222,0,0,2.5856,2.5916,2.5931,2.5955,2.6003,2.6044,2.61,2.6151,2.6179,2.6218,2.6264,2.6334,2.632,2.6349,2.6355,2.6391,2.646,2.6372,2.6373,2.6386,2.6548,2.6558,2.6571,2.6455,2.6457,2.6459,2.6544,0,2.594,2.604,2.6051,2.6139,2.6188,2.6182,2.6231,2.6265,2.6282,2.6324,2.6342,2.6391,2.637,2.6387,2.6423,2.6444,2.6492,2.6438,2.6497,2.6499,2.6486,2.6586,2.6598,2.6676,2.6555,2.6557,2.6558,0,2.6052,2.6095,2.6188,2.6228,2.6249,2.6293,2.634,2.6381,2.6419,2.6428,2.6461,2.6461,2.6518,2.6484,2.6561,2.6524,2.6548,2.6562,2.6565,2.6571,2.6532,2.6593,2.6702,2.6713,2.6576,2.6574,2.6573,0,2.6113,2.6194,2.626,2.6281,2.633,2.636,2.6382,2.6418,2.6447,2.6488,2.6507,2.6554,2.6579,2.6615,2.6628,2.6602,2.6704,2.6671,2.6712,2.6712,2.6734,2.6732,2.6846,2.6751,2.6751,2.6751,2.675,0,2.6206,2.6263,2.6287,2.6328,2.6391,2.6403,2.6465,2.6485,2.6516,2.656,2.6558,2.6599,2.6613,2.6656,2.6666,2.6728,2.6739,2.6748,2.675,2.6748,2.6746,2.6764,2.6758,2.6754,2.6753,2.6752,2.6752,0,2.6285,2.6303,2.6375,2.6415,2.6426,2.6471,2.6505,2.6543,2.6559,2.6614,2.6628,2.6653,2.6703,2.6719,2.6779,2.6786,2.6858,2.6855,2.6845,2.6845,2.6885,2.688,2.7014,2.7031,2.6925,2.6926,2.6927,0,2.6342,2.6386,2.6431,2.646,2.6483,2.653,2.656,2.6573,2.6604,2.665,2.6683,2.6732,2.6773,2.6853,2.6876,2.6921,2.6919,2.6963,2.6926,2.6922,2.6919,2.6916,2.692,2.697,2.6971,2.6972,2.6972,0,2.6442,2.6449,2.6493,2.654,2.6576,2.6614,2.665,2.6674,2.6691,2.6727,2.6778,2.6809,2.6871,2.692,2.6966,2.6987,2.6982,2.6984,2.6995,2.6993,2.6985,2.6989,2.6863,2.698,2.698,2.6979,2.6979,2.6978,2.6512,2.655,2.6587,2.6635,2.6664,2.6698,2.6735,2.6756,2.6799,2.6851,2.6855,2.691,2.6946,2.7008,2.7031,2.7074,2.7061,2.7079,2.7083,2.7087,2.7089,2.6979,2.7082,2.7082,2.7082,2.7082,2.7082,0,2.661,2.6634,2.6679,2.6729,2.6767,2.676,2.6799,2.6831,2.688,2.6914,2.6954,2.7012,2.7059,2.7085,2.7132,2.7161,2.716,2.7173,2.717,2.7175,2.7098,2.7083,2.7173,2.7173,2.7173,2.7173,2.7173,2.7173,2.6666,2.673,2.6741,2.6819,2.6841,2.6896,2.6919,2.6949,2.6976,2.7042,2.7081,2.7098,2.7129,2.7177,2.722,2.7226,2.7243,2.7257,2.7262,2.719,2.7181,2.7172,2.7157,2.7261,2.7261,2.7335,2.7336,2.7336]}]]